Regional Weather Roundup
Issued by NWS Goodland, KS

Home | Current Version | Previous Version | Graphics & Text | Print | Product List | Glossary On
Versions: 1 2 3 4 5 6 7 8 9 10 11 12 13 14 15 16 17 18 19 20 21 22 23 24 25 26 27 28 29 30 31 32 33 34 35 36 37 38 39 40 41 42 43 44 45 46 47 48 49 50
000
ASUS43 KGLD 200959
RWRGLD

GOODLAND FORECAST AREA HOURLY WEATHER ROUNDUP
NATIONAL WEATHER SERVICE GOODLAND KS
400 AM MDT FRI APR 20 2018

...OFFICIAL OBSERVATIONS...

CITY           SKY/WX    TMP DP  RH WIND       PRES   REMARKS
GOODLAND KS    FAIR      40  28  62 SE25G33   30.13F
HILL CITY KS   CLOUDY    36  27  69 E6        30.27F
IMPERIAL NEB   FAIR      38  28  67 E16       30.16F
MCCOOK NEB     FAIR      41  27  57 SE10      30.22F
AKRON CO       FAIR      39  27  62 SE23G32   30.01R
BURLINGTON CO  FAIR      39  27  62 SE26G40   30.08F
LIMON CO       FAIR      37  24  59 SE28G38   29.99F
$$

...UNOFFICIAL OBSERVATIONS...

CITY           SKY/WX    TMP DP  RH WIND       PRES   REMARKS
NORTON KS      CLEAR     41  28  60 SE10      30.26
SHARON SPRINGS   N/A     42  30  62 SE18G31     N/A
KIT CARSON CO    N/A     43  26  51 MISG        N/A
YUMA CO        FAIR      37  27  65 SE22      30.04F
$$



USA.gov is the U.S. government's official web portal to all federal, state and local government web resources and services.